Simultaneous Nadir Overpasses (SNOs) Predictions

Prediction of SNOs between FY3D and AQUA Satellite Orbit:

Table of predicted SNOs for the next 14.0 days since TLE Epoch: 8/19/2023
Index Date (FY3D) Time (FY3D) Lat,Lon (FY3D) SZA (FY3D ) Date (AQUA) Time (AQUA) Lat,Lon (AQUA) SZA (AQUA ) Distance(km) Time Diff (sec)
1 08/20/2023 03:10:09 -78.80, -66.54 113.11 08/20/2023 03:10:47 -78.81, -66.65 113.11 2.70 38
2 08/20/2023 04:00:45 78.41, 103.25 66.37 08/20/2023 04:00:02 78.42, 103.14 66.40 2.63 43
3 08/22/2023 16:55:45 78.79, -92.86 67.73 08/22/2023 16:56:02 78.80, -92.86 67.72 0.24 17
4 08/22/2023 17:46:20 -78.42, 76.80 112.77 08/22/2023 17:45:17 -78.42, 76.83 112.76 0.81 63
5 08/25/2023 05:52:53 81.10, 26.56 75.62 08/25/2023 05:54:06 81.74, 26.21 75.87 71.52 73
6 08/25/2023 06:41:16 -78.66,-118.35 111.60 08/25/2023 06:41:13 -78.67,-118.44 111.59 2.12 3
7 08/27/2023 19:36:15 -79.00, 45.65 110.26 08/27/2023 19:37:10 -78.99, 45.77 110.29 2.82 55
8 08/27/2023 20:26:48 78.53,-143.86 69.10 08/27/2023 20:26:23 78.53,-143.96 69.12 2.48 25
9 08/30/2023 09:21:44 78.81, 20.62 70.37 08/30/2023 09:22:17 78.82, 20.53 70.37 2.07 33
10 08/30/2023 10:12:19 -78.43,-169.63 110.14 08/30/2023 10:11:32 -78.44,-169.75 110.11 2.82 47
11 09/01/2023 23:07:17 -78.76, -5.36 108.80 09/01/2023 23:07:27 -78.76, -5.43 108.79 1.74 10



Historial Predications of SNOs between FY3D and AQUA
